Simultaneous Nadir Overpasses (SNOs) Predictions

Prediction of SNOs between NPP and TERRA Satellite Orbit:

Table of predicted SNOs for the next 14.0 days since TLE Epoch: 10/28/2023
Index Date (NPP) Time (NPP) Lat,Lon (NPP) SZA (NPP ) Date (TERRA) Time (TERRA) Lat,Lon (TERRA) SZA (TERRA ) Distance(km) Time Diff (sec)
1 10/29/2023 19:59:06 -71.42, 54.67 95.11 10/29/2023 20:00:01 -71.41, 54.72 95.13 2.48 55
2 10/29/2023 20:49:50 71.30,-137.82 84.78 10/29/2023 20:49:23 71.29,-137.79 84.77 1.40 27
3 11/01/2023 08:02:23 71.64, 53.46 85.93 11/01/2023 08:03:34 71.54, 54.01 85.82 22.46 71
4 11/01/2023 08:53:01 -71.35,-138.69 94.36 11/01/2023 08:53:02 -71.32,-138.70 94.39 3.42 1
5 11/01/2023 09:43:39 70.92, 29.35 85.22 11/01/2023 09:42:28 70.98, 28.45 85.29 33.47 71
6 11/03/2023 20:56:13 71.37,-139.54 86.46 11/03/2023 20:56:35 71.36,-139.55 86.44 1.53 22
7 11/03/2023 21:46:55 -71.28, 27.93 93.63 11/03/2023 21:46:00 -71.30, 28.00 93.61 3.30 55
8 11/06/2023 08:59:24 -71.43,-140.44 92.72 11/06/2023 09:00:12 -71.43,-140.38 92.73 2.01 48
9 11/06/2023 09:50:08 71.32, 27.07 87.18 11/06/2023 09:49:34 71.31, 27.10 87.17 1.38 34
10 11/08/2023 21:02:37 71.47,-141.32 88.06 11/08/2023 21:03:45 71.46,-141.25 88.05 2.99 68
11 11/08/2023 21:53:18 -71.33, 26.25 92.08 11/08/2023 21:53:11 -71.35, 26.22 92.06 2.44 7



Historial Predications of SNOs between NPP and TERRA
